| time (UTC) | temp F | wind direction | speed MPH | gust MPH | rain 1hr in | rain 24hr in | rain mn in | humidity % | barometer mb |
| 20260507101343 | 33 | 0 | 0.0 | 0.0 | 0.00 | 0.00 | 0.00 | 75 | 1014.8 |
| 20260507100444 | 33 | 0 | 0.0 | 0.0 | 0.00 | 0.00 | 0.00 | 75 | 1014.8 |
| 20260507095543 | 33 | 0 | 0.0 | 0.0 | 0.00 | 0.00 | 0.00 | 75 | 1014.8 |
| 20260507093743 | 33 | 0 | 0.0 | 0.0 | 0.00 | 0.00 | 0.00 | 76 | 1014.8 |
| 20260507092844 | 34 | 0 | 0.0 | 0.0 | 0.00 | 0.00 | 0.00 | 76 | 1014.9 |
| 20260507091943 | 34 | 0 | 0.0 | 0.0 | 0.00 | 0.00 | 0.00 | 76 | 1014.9 |
| 20260507091043 | 34 | 0 | 0.0 | 0.0 | 0.00 | 0.00 | 0.00 | 76 | 1015.0 |
| 20260507090144 | 34 | 0 | 0.0 | 0.0 | 0.00 | 0.00 | 0.00 | 76 | 1015.0 |
| 20260507085244 | 34 | 0 | 0.0 | 0.0 | 0.00 | 0.00 | 0.00 | 76 | 1015.0 |
| 20260507083443 | 35 | 0 | 0.0 | 0.0 | 0.00 | 0.00 | 0.00 | 76 | 1015.0 |
| 20260507082544 | 35 | 0 | 0.0 | 0.0 | 0.00 | 0.00 | 0.00 | 76 | 1014.9 |
| 20260507081644 | 35 | 0 | 0.0 | 0.0 | 0.00 | 0.00 | 0.00 | 76 | 1014.9 |
| 20260507080743 | 35 | 0 | 0.0 | 0.0 | 0.00 | 0.00 | 0.00 | 76 | 1014.8 |
| 20260507075844 | 35 | 0 | 0.0 | 0.0 | 0.00 | 0.00 | 0.00 | 76 | 1014.9 |
| 20260507074943 | 35 | 0 | 0.0 | 0.0 | 0.00 | 0.00 | 0.00 | 75 | 1014.9 |
| 20260507074043 | 35 | 0 | 0.0 | 0.0 | 0.00 | 0.00 | 0.00 | 75 | 1014.9 |
| 20260507073144 | 35 | 0 | 0.0 | 0.0 | 0.00 | 0.00 | 0.00 | 75 | 1014.9 |
| 20260507072243 | 36 | 0 | 0.0 | 0.0 | 0.00 | 0.00 | 0.00 | 75 | 1014.9 |
| 20260507071344 | 36 | 0 | 0.0 | 0.0 | 0.00 | 0.00 | 0.00 | 75 | 1014.9 |
| 20260507070444 | 36 | 0 | 0.0 | 0.0 | 0.00 | 0.00 | 0.00 | 75 | 1015.1 |
| 20260507064644 | 36 | 0 | 0.0 | 0.0 | 0.00 | 0.00 | 0.00 | 75 | 1015.2 |
| 20260507063743 | 36 | 0 | 0.0 | 0.0 | 0.00 | 0.00 | 0.00 | 74 | 1015.2 |
| 20260507062843 | 36 | 0 | 0.0 | 0.0 | 0.00 | 0.00 | 0.00 | 74 | 1015.2 |
| 20260507061944 | 36 | 0 | 0.0 | 0.0 | 0.00 | 0.00 | 0.00 | 74 | 1015.3 |
| 20260507061043 | 37 | 0 | 0.0 | 0.0 | 0.00 | 0.00 | 0.00 | 73 | 1015.3 |
| 20260507055243 | 37 | 0 | 0.0 | 0.0 | 0.00 | 0.00 | 0.00 | 72 | 1015.3 |
| 20260507054343 | 37 | 0 | 0.0 | 0.0 | 0.00 | 0.00 | 0.00 | 72 | 1015.3 |
| 20260507053444 | 38 | 0 | 0.0 | 0.0 | 0.00 | 0.00 | 0.00 | 71 | 1015.2 |
| 20260507052543 | 38 | 0 | 0.0 | 0.0 | 0.00 | 0.00 | 0.00 | 71 | 1015.3 |
| 20260507051643 | 38 | 0 | 0.0 | 0.0 | 0.00 | 0.00 | 0.00 | 70 | 1015.3 |
| 20260507050743 | 39 | 0 | 0.0 | 0.0 | 0.00 | 0.00 | 0.00 | 70 | 1015.3 |
| 20260507045843 | 39 | 0 | 0.0 | 0.0 | 0.00 | 0.00 | 0.00 | 68 | 1015.3 |
| 20260507044943 | 39 | 0 | 0.0 | 0.0 | 0.00 | 0.00 | 0.00 | 68 | 1015.3 |
| 20260507044044 | 40 | 0 | 0.0 | 0.0 | 0.00 | 0.00 | 0.00 | 67 | 1015.3 |
| 20260507043143 | 40 | 0 | 0.0 | 0.0 | 0.00 | 0.00 | 0.00 | 66 | 1015.3 |
| 20260507042244 | 41 | 0 | 0.0 | 0.0 | 0.00 | 0.00 | 0.00 | 65 | 1015.3 |
| 20260507041344 | 41 | 0 | 0.0 | 0.0 | 0.00 | 0.00 | 0.00 | 63 | 1015.3 |
| 20260507035544 | 42 | 0 | 0.0 | 0.0 | 0.00 | 0.00 | 0.00 | 60 | 1015.2 |
| 20260507034644 | 42 | 0 | 0.0 | 0.0 | 0.00 | 0.00 | 0.00 | 60 | 1015.2 |
| 20260507033743 | 42 | 0 | 0.0 | 0.0 | 0.00 | 0.00 | 0.00 | 59 | 1015.2 |
| 20260507032844 | 42 | 0 | 0.0 | 0.0 | 0.00 | 0.00 | 0.00 | 59 | 1015.2 |
| 20260507031944 | 43 | 343 | 0.0 | 1.0 | 0.00 | 0.00 | 0.00 | 58 | 1015.3 |
| 20260507031043 | 43 | 0 | 0.0 | 0.0 | 0.00 | 0.00 | 0.00 | 57 | 1015.3 |
| 20260507030144 | 44 | 0 | 0.0 | 0.0 | 0.00 | 0.00 | 0.00 | 55 | 1015.2 |
| 20260507025244 | 44 | 0 | 0.0 | 0.0 | 0.00 | 0.00 | 0.00 | 55 | 1015.2 |
| 20260507024344 | 45 | 347 | 0.0 | 1.0 | 0.00 | 0.00 | 0.00 | 53 | 1015.2 |
| 20260507023443 | 45 | 347 | 0.0 | 1.0 | 0.00 | 0.00 | 0.00 | 51 | 1015.1 |
| 20260507022543 | 46 | 347 | 0.0 | 1.0 | 0.00 | 0.00 | 0.00 | 50 | 1015.0 |
| 20260507021642 | 46 | 337 | 0.0 | 2.0 | 0.00 | 0.00 | 0.00 | 50 | 1014.8 |
| 20260507015854 | 47 | 334 | 1.0 | 2.0 | 0.00 | 0.00 | 0.00 | 47 | 1014.6 |
| 20260507014944 | 47 | 323 | 1.0 | 2.0 | 0.00 | 0.00 | 0.00 | 47 | 1014.5 |
| 20260507014044 | 48 | 330 | 1.0 | 5.0 | 0.00 | 0.00 | 0.00 | 46 | 1014.4 |
| 20260507012244 | 48 | 308 | 1.0 | 4.0 | 0.00 | 0.00 | 0.00 | 45 | 1014.4 |
| 20260507011342 | 48 | 336 | 2.0 | 8.0 | 0.00 | 0.00 | 0.00 | 45 | 1014.5 |
| 20260507010444 | 49 | 340 | 1.0 | 5.0 | 0.00 | 0.00 | 0.00 | 45 | 1014.4 |
| 20260507005543 | 49 | 308 | 1.0 | 6.0 | 0.00 | 0.00 | 0.00 | 43 | 1014.3 |
| 20260507004644 | 50 | 306 | 2.0 | 8.0 | 0.00 | 0.00 | 0.00 | 44 | 1014.2 |
| 20260507002843 | 50 | 323 | 3.0 | 12.0 | 0.00 | 0.00 | 0.00 | 43 | 1014.2 |
| 20260507001944 | 51 | 311 | 2.0 | 7.0 | 0.00 | 0.00 | 0.00 | 43 | 1014.3 |
| 20260507001043 | 51 | 310 | 3.0 | 10.0 | 0.00 | 0.00 | 0.00 | 41 | 1013.9 |
| 20260507000144 | 52 | 304 | 3.0 | 10.0 | 0.00 | 0.00 | 0.00 | 41 | 1013.9 |
| 20260506234344 | 52 | 304 | 3.0 | 9.0 | 0.00 | 0.00 | 0.00 | 40 | 1013.7 |
| 20260506233443 | 53 | 303 | 2.0 | 9.0 | 0.00 | 0.00 | 0.00 | 41 | 1013.6 |
| 20260506232543 | 53 | 302 | 2.0 | 9.0 | 0.00 | 0.00 | 0.00 | 40 | 1013.6 |
| 20260506231643 | 53 | 306 | 2.0 | 8.0 | 0.00 | 0.00 | 0.00 | 39 | 1013.5 |
| 20260506230743 | 53 | 310 | 3.0 | 13.0 | 0.00 | 0.00 | 0.00 | 39 | 1013.5 |
| 20260506225844 | 54 | 316 | 2.0 | 8.0 | 0.00 | 0.00 | 0.00 | 39 | 1013.3 |
| 20260506224943 | 54 | 292 | 2.0 | 6.0 | 0.00 | 0.00 | 0.00 | 40 | 1013.3 |
| 20260506224043 | 54 | 305 | 2.0 | 7.0 | 0.00 | 0.00 | 0.00 | 39 | 1013.3 |
| 20260506222244 | 55 | 275 | 2.0 | 8.0 | 0.00 | 0.00 | 0.00 | 39 | 1013.3 |
| 20260506221343 | 55 | 292 | 3.0 | 10.0 | 0.00 | 0.00 | 0.00 | 40 | 1013.2 |
| 20260506220443 | 55 | 300 | 3.0 | 9.0 | 0.00 | 0.00 | 0.00 | 38 | 1013.1 |
| 20260506215543 | 55 | 248 | 2.0 | 7.0 | 0.00 | 0.00 | 0.00 | 39 | 1013.2 |
| 20260506214643 | 55 | 274 | 3.0 | 7.0 | 0.00 | 0.00 | 0.00 | 38 | 1013.0 |
| 20260506213744 | 55 | 308 | 3.0 | 13.0 | 0.00 | 0.00 | 0.00 | 38 | 1012.9 |
| 20260506212843 | 56 | 242 | 2.0 | 7.0 | 0.00 | 0.00 | 0.00 | 36 | 1013.0 |
| 20260506211043 | 56 | 303 | 2.0 | 9.0 | 0.00 | 0.00 | 0.00 | 37 | 1012.7 |
| 20260506210143 | 56 | 302 | 2.0 | 7.0 | 0.00 | 0.00 | 0.00 | 37 | 1012.8 |
| 20260506205243 | 58 | 272 | 2.0 | 9.0 | 0.00 | 0.00 | 0.00 | 35 | 1012.8 |
| 20260506204343 | 58 | 250 | 2.0 | 8.0 | 0.00 | 0.00 | 0.00 | 36 | 1012.8 |
| 20260506203443 | 58 | 270 | 2.0 | 10.0 | 0.00 | 0.00 | 0.00 | 35 | 1012.9 |
| 20260506201643 | 58 | 197 | 2.0 | 7.0 | 0.00 | 0.00 | 0.00 | 32 | 1013.1 |
| 20260506200743 | 58 | 210 | 2.0 | 7.0 | 0.00 | 0.00 | 0.00 | 34 | 1013.1 |
| 20260506195843 | 58 | 177 | 2.0 | 7.0 | 0.00 | 0.00 | 0.00 | 34 | 1013.2 |
| 20260506194943 | 58 | 246 | 2.0 | 8.0 | 0.00 | 0.00 | 0.00 | 35 | 1013.2 |
| 20260506194043 | 58 | 242 | 2.0 | 7.0 | 0.00 | 0.00 | 0.00 | 35 | 1013.2 |
| 20260506193143 | 58 | 203 | 2.0 | 9.0 | 0.00 | 0.00 | 0.00 | 33 | 1013.2 |
| 20260506192243 | 58 | 257 | 2.0 | 9.0 | 0.00 | 0.00 | 0.00 | 36 | 1013.2 |
| 20260506191343 | 56 | 332 | 1.0 | 8.0 | 0.00 | 0.00 | 0.00 | 37 | 1013.3 |
| 20260506185543 | 55 | 233 | 2.0 | 6.0 | 0.00 | 0.00 | 0.00 | 39 | 1013.4 |
| 20260506184643 | 56 | 193 | 2.0 | 5.0 | 0.00 | 0.00 | 0.00 | 38 | 1013.5 |
| 20260506183743 | 55 | 217 | 2.0 | 5.0 | 0.00 | 0.00 | 0.00 | 38 | 1013.4 |
| 20260506182843 | 55 | 196 | 2.0 | 8.0 | 0.00 | 0.00 | 0.00 | 38 | 1013.4 |
| 20260506181943 | 55 | 171 | 1.0 | 5.0 | 0.00 | 0.00 | 0.00 | 37 | 1013.5 |
| 20260506175243 | 55 | 258 | 1.0 | 5.0 | 0.00 | 0.00 | 0.00 | 41 | 1013.4 |
| 20260506174343 | 54 | 237 | 1.0 | 6.0 | 0.00 | 0.00 | 0.00 | 41 | 1013.6 |
| 20260506172543 | 55 | 195 | 2.0 | 7.0 | 0.00 | 0.00 | 0.00 | 38 | 1013.7 |
| 20260506170743 | 54 | 346 | 1.0 | 4.0 | 0.00 | 0.00 | 0.00 | 40 | 1013.7 |
| 20260506165843 | 54 | 310 | 2.0 | 7.0 | 0.00 | 0.00 | 0.00 | 41 | 1013.8 |
| 20260506164943 | 54 | 244 | 2.0 | 6.0 | 0.00 | 0.00 | 0.00 | 41 | 1013.8 |
| 20260506164043 | 54 | 255 | 1.0 | 4.0 | 0.00 | 0.00 | 0.00 | 41 | 1013.7 |
| 20260506162242 | 55 | 186 | 2.0 | 5.0 | 0.00 | 0.00 | 0.00 | 41 | 1013.5 |
| 20260506161343 | 54 | 293 | 2.0 | 5.0 | 0.00 | 0.00 | 0.00 | 41 | 1013.6 |
| 20260506160443 | 54 | 250 | 1.0 | 5.0 | 0.00 | 0.00 | 0.00 | 38 | 1013.6 |
| 20260506155542 | 54 | 296 | 1.0 | 6.0 | 0.00 | 0.00 | 0.00 | 40 | 1013.6 |
| 20260506154643 | 54 | 294 | 2.0 | 4.0 | 0.00 | 0.00 | 0.00 | 40 | 1013.7 |
| 20260506153743 | 54 | 21 | 1.0 | 4.0 | 0.00 | 0.00 | 0.00 | 42 | 1013.7 |
| 20260506152843 | 53 | 15 | 1.0 | 5.0 | 0.00 | 0.00 | 0.00 | 40 | 1013.7 |
| 20260506151042 | 53 | 289 | 1.0 | 7.0 | 0.00 | 0.00 | 0.00 | 37 | 1013.8 |
| 20260506150143 | 53 | 338 | 1.0 | 7.0 | 0.00 | 0.00 | 0.00 | 39 | 1013.8 |
| 20260506145243 | 53 | 251 | 1.0 | 3.0 | 0.00 | 0.00 | 0.00 | 39 | 1013.8 |
| 20260506143442 | 53 | 313 | 1.0 | 6.0 | 0.00 | 0.00 | 0.00 | 43 | 1013.9 |
| 20260506140743 | 52 | 342 | 0.0 | 3.0 | 0.00 | 0.00 | 0.00 | 43 | 1013.7 |
| 20260506135843 | 51 | 334 | 0.0 | 3.0 | 0.00 | 0.00 | 0.00 | 47 | 1013.8 |
| 20260506134943 | 50 | 358 | 0.0 | 2.0 | 0.00 | 0.00 | 0.00 | 50 | 1013.6 |
| 20260506133143 | 48 | 1 | 0.0 | 1.0 | 0.00 | 0.00 | 0.00 | 60 | 1013.1 |
| 20260506132242 | 47 | 1 | 0.0 | 1.0 | 0.00 | 0.00 | 0.00 | 60 | 1013.1 |
| 20260506131342 | 46 | 1 | 0.0 | 1.0 | 0.00 | 0.00 | 0.00 | 62 | 1013.0 |
| 20260506130443 | 46 | 1 | 0.0 | 1.0 | 0.00 | 0.00 | 0.00 | 65 | 1013.0 |
| 20260506124642 | 43 | 1 | 0.0 | 1.0 | 0.00 | 0.00 | 0.00 | 72 | 1012.8 |
| 20260506123742 | 43 | 0 | 0.0 | 0.0 | 0.00 | 0.00 | 0.00 | 73 | 1012.7 |
| 20260506122842 | 42 | 0 | 0.0 | 0.0 | 0.00 | 0.00 | 0.00 | 73 | 1012.5 |
| 20260506121942 | 42 | 0 | 0.0 | 0.0 | 0.00 | 0.00 | 0.00 | 74 | 1012.4 |
| 20260506121042 | 41 | 0 | 0.0 | 0.0 | 0.00 | 0.00 | 0.00 | 74 | 1012.3 |
| 20260506120142 | 41 | 0 | 0.0 | 0.0 | 0.00 | 0.00 | 0.00 | 74 | 1012.3 |
| 20260506115242 | 41 | 0 | 0.0 | 0.0 | 0.00 | 0.00 | 0.00 | 74 | 1012.3 |
| 20260506114342 | 40 | 0 | 0.0 | 0.0 | 0.00 | 0.00 | 0.00 | 74 | 1012.3 |
| 20260506113442 | 40 | 0 | 0.0 | 0.0 | 0.00 | 0.00 | 0.00 | 73 | 1012.1 |
| 20260506112542 | 40 | 0 | 0.0 | 0.0 | 0.00 | 0.00 | 0.00 | 73 | 1012.1 |
| 20260506110742 | 40 | 0 | 0.0 | 0.0 | 0.00 | 0.00 | 0.00 | 73 | 1011.9 |
| 20260506104940 | 40 | 0 | 0.0 | 0.0 | 0.00 | 0.00 | 0.00 | 71 | 1011.9 |
| 20260506103140 | 41 | 0 | 0.0 | 0.0 | 0.00 | 0.00 | 0.00 | 69 | 1011.4 |
| 20260506102240 | 41 | 0 | 0.0 | 0.0 | 0.00 | 0.00 | 0.00 | 68 | 1011.3 |